Location: Larrial
(48.2758°N, 4.5331°W)
Time: 02:15:28
(UTC+00:00)

TIGRISAT - Visible Passes

Search period start: 06 December 2021 00:00
Search period end: 16 December 2021 00:00
Orbit: 603 x 689 km, 97.7° (Epoch: 05 December)

Date Brightness Start Highest point End Pass type
(mag) Time Alt. Az. Time Alt. Az. Time Alt. Az.
06 Dec ? 05:03:27 10° ESE 05:06:17 18° ENE 05:09:07 10° NNE visible
06 Dec ? 06:38:23 10° S 06:42:34 56° W 06:46:46 10° NNW visible
07 Dec ? 05:27:46 10° SE 05:31:25 29° ENE 05:35:05 10° N visible
07 Dec ? 07:04:16 10° SSW 07:08:03 31° W 07:11:51 10° NNW visible
08 Dec ? 05:52:33 10° SE 05:56:39 50° ENE 06:00:46 10° N visible
09 Dec ? 04:44:23 10° E 04:45:58 12° ENE 04:47:32 10° NE visible
09 Dec ? 06:17:43 10° SSE 06:21:58 90° W 06:26:14 10° NNW visible
10 Dec ? 05:07:59 10° ESE 05:11:01 20° ENE 05:14:04 10° NNE visible
10 Dec ? 06:43:15 10° S 06:47:22 49° W 06:51:31 10° NNW visible
11 Dec ? 05:32:24 10° SE 05:36:09 32° ENE 05:39:58 10° N visible
11 Dec ? 07:09:14 10° SSW 07:12:52 27° W 07:16:32 10° NW visible
11 Dec ? 19:03:52 11° S 19:03:52 11° S 19:04:01 10° S visible
12 Dec ? 05:57:16 10° SSE 06:01:24 57° ENE 06:05:35 10° N visible
12 Dec ? 19:29:25 11° S 19:29:25 11° S 19:29:39 10° S visible
13 Dec ? 04:48:39 10° E 04:50:40 13° ENE 04:52:42 10° NNE visible
13 Dec ? 06:22:30 10° S 06:26:44 80° WSW 06:31:01 10° NNW visible
14 Dec ? 05:12:30 10° ESE 05:15:45 22° ENE 05:19:00 10° NNE visible
14 Dec ? 06:48:08 10° S 06:52:10 43° W 06:56:15 10° NNW visible
14 Dec ? 18:42:48 11° SSE 18:42:48 11° SSE 18:43:00 10° SSE visible
15 Dec ? 05:37:02 10° SE 05:40:54 36° ENE 05:44:50 10° N visible
15 Dec ? 07:14:12 10° SSW 07:17:41 24° W 07:21:12 10° NW visible
15 Dec ? 19:08:20 14° S 19:08:20 14° S 19:08:58 10° S visible
